User: anonymous   Login
Location: Passau
(48.5830°N, 13.4830°E)
Time: 23:48:28
(UTC+01:00)
Language:

ZACube-1 - Orbit

View from above orbital plane
View from above orbital plane
View from above satellite
View from above satellite

Ground track
Ground track

The orbit data is extracted from the following two-line orbital elements,

1 39417U 13066B   21335.53492498  .00000829  00000-0  10880-3 0  9997
2 39417  97.6126 311.3875 0057866 334.8647  24.9752 14.81698996433811
Epoch (UTC): 01 December 2021 12:50:17
Eccentricity: 0.0057866
inclination: 97.6126°
perigee height: 583 km
apogee height: 664 km
right ascension of ascending node: 311.3875°
argument of perigee: 334.8647°
revolutions per day: 14.81698996
mean anomaly at epoch: 24.9752°
orbit number at epoch: 43381

The dashed part of the orbit path shows where the satellite is in the earth's shadow,  

DLR